Weather Roundup
Issued by NWS Corpus Christi, TX

Home | Current Version | Previous Version | Text Only | Print | Product List | Glossary On
Versions: 1 2 3 4 5 6 7 8 9 10 11 12 13 14 15 16 17 18 19 20 21 22 23 24 25 26 27 28 29 30 31 32 33 34 35 36 37 38 39 40 41 42 43 44 45 46 47 48 49 50
000
ASUS44 KCRP 240410
HRRCRP

SOUTH TEXAS REGIONAL WEATHER ROUNDUP
NATIONAL WEATHER SERVICE CORPUS CHRISTI TX
1100 PM CDT WED APR 23 2014


TXZ229>244-240500-
...CORPUS CHRISTI AREA OBSERVATIONS...

CITY           SKY/WX    TMP DP  RH WIND       PRES   REMARKS
CORPUS CHRISTI MOCLDY    73  68  84 SE18G28   29.84S
NAS CORPUS CHR MOCLDY    72  70  93 SE18      29.84S
ROCKPORT       CLOUDY    73  69  87 SE18G28   29.85S
KINGSVILLE NAS PTCLDY    73  68  84 SE18G26   29.83S
ALICE          CLEAR     72  66  81 SE14      29.82S
FALFURRIAS     CLEAR     73  66  78 SE7       29.84R
$$

...VICTORIA AREA OBSERVATIONS...

CITY           SKY/WX    TMP DP  RH WIND       PRES   REMARKS
VICTORIA       PTCLDY    70  67  90 SE14      29.86S
BEEVILLE       FAIR      71  67  86 SE18      29.82F
PLEASANTON     CLOUDY    72  62  70 SE13      29.85F
SAN ANTONIO    CLOUDY    73  63  70 SE21G35   29.78F
$$

...LAREDO AREA OBSERVATIONS...

CITY           SKY/WX    TMP DP  RH WIND       PRES   REMARKS
LAREDO         MOCLDY    78  60  53 SE18G24   29.78F
COTULLA        MOCLDY    75  61  61 SE29      29.78F
DEL RIO        MOCLDY    72  61  68 S3        29.72R
MCALLEN        PTCLDY    73  67  81 SE13      29.82R
HEBBRONVILLE   CLEAR     72  64  77 SE12G18   29.81F
$$

...OTHER TEXAS OBSERVATIONS...

CITY           SKY/WX    TMP DP  RH WIND       PRES   REMARKS
BROWNSVILLE    CLEAR     73  69  87 SE16G23   29.82F
HOUSTON        PTCLDY    70  65  84 S8        29.87S
COL. STATION   CLOUDY    72  64  76 S17G25    29.84R
AUSTIN         CLOUDY    72  63  73 SE17      29.80F
WACO           CLOUDY    74  62  66 S18G24    29.78S
FORT WORTH     MOCLDY    76  58  53 S17G23    29.75F
WICHITA FALLS  CLOUDY    73  60  63 SE28G37   29.66R
LUBBOCK        CLEAR     75  20  12 SW16      29.67R
EL PASO        PTCLDY    76  21  12 NW21G33   29.84R
$$

...MARINE OBSERVATIONS...

STATION/POSITION TIME  SKY/WX   TEMP    WIND        PRES    VSBY  WAVE   SWELL
                                AIR SEA DIR/SP/G                  HT/PER HT/PER
                 (UTC)          (F)     (DEG/KT/KT) (MB)    (MI)  (FT/S) (FT/S)
PORT ARANSAS     0400            71 76  130/ 18/ 20 1010.7F
BUOY 90 E PORT A NOT AVBL
BUOY 45 SE BAFFI 0400            72 71  140/ 14/ 16 1010.7F         3/ 4
BUOY 200 E PT IS NOT AVBL
BUOY 15 E GALVES 0400            71 71  140/ 12/ 14 1012.0F         1/ 3
$$


USA.gov is the U.S. government's official web portal to all federal, state and local government web resources and services.